Arctic Village, AK

1:07 PM AKST on December 06, 2016 (GMT -0900)
Arctic Village

Weather History for PARC - February, 2013

Change the Weather History Date:

Friday, February 22, 2013

  Actual Average Record
Temperature  
Mean Temperature -22 °F -  
Max Temperature -16 °F -4 °F 19 °F (2008)
Min Temperature -29 °F -32 °F -54 °F (1990)
Degree Days  
Heating Degree Days 88    
Moisture  
Dew Point -26 °F    
Average Humidity 66    
Maximum Humidity 100    
Minimum Humidity 53    
Precipitation  
Precipitation 0.00 in - - ()
Sea Level Pressure  
Sea Level Pressure 29.52 in    
Wind  
Wind Speed 1 mph (East)    
Max Wind Speed 5 mph    
Max Gust Speed -    
Visibility 8 miles    
Events      
Averages and records for this station are not official NWS values.
T = Trace of Precipitation, MM = Missing Value Source: NWS Daily Summary

Daily Weather History Graph

Daily Weather History Graph

Search for Another Location

Airport or City:

Trip Planner

Search our weather history database for the weather conditions in past years. The results will help you decide how hot, cold, wet, or windy it might be!

Date:

Astronomy

Feb. 22, 2013 Rise Set
Actual Time 8:29 AM AKST 5:23 PM AKST
Civil Twilight 7:30 AM AKST 6:22 PM AKST
Nautical Twilight 6:26 AM AKST 7:27 PM AKST
Astronomical Twilight 5:20 AM AKST 8:33 PM AKST
Moon 1:42 PM AKST (2/22) 7:27 AM AKST (2/22)
Length of Visible Light 10h 51m
Length of Day
8h 54m
Waxing Gibbous, 91% of the Moon is Illuminated
Feb 22
Waxing Gibbous
Feb 25
Full
Mar 4
Last Quarter
Mar 11
New
Mar 19
First Quarter

Hourly Weather History & Observations

Time (AKST) Temp. Windchill Dew Point Humidity Pressure Visibility Wind Dir Wind Speed Gust Speed Precip Events Conditions
12:16 AM -18.4 °F -31.4 °F -25.6 °F 70% 29.45 in 10.0 mi East 4.6 mph - N/A   Clear
12:36 AM -18.4 °F - - N/A% 29.45 in 10.0 mi Calm Calm - N/A   Clear
12:56 AM -20.2 °F - -25.6 °F 76% 29.45 in 10.0 mi Calm Calm - N/A   Clear
1:16 AM -22.0 °F - - N/A% 29.45 in 10.0 mi Calm Calm - N/A   Clear
1:36 AM -22.0 °F - - N/A% 29.46 in 10.0 mi Calm Calm - N/A   Clear
1:56 AM -22.0 °F - - N/A% 29.46 in 10.0 mi Calm Calm - N/A   Clear
2:16 AM -23.8 °F - - N/A% 29.46 in 10.0 mi Calm Calm - N/A   Clear
2:56 AM -22.0 °F - - N/A% 29.45 in 10.0 mi Calm Calm - N/A   Clear
3:36 AM -23.8 °F - - N/A% 29.45 in 10.0 mi Calm Calm - N/A   Scattered Clouds
3:56 AM -23.8 °F - - N/A% 29.45 in 10.0 mi Calm Calm - N/A   Clear
4:16 AM -23.8 °F - - N/A% 29.45 in 10.0 mi Calm Calm - N/A   Clear
4:36 AM -27.4 °F - - N/A% 29.45 in 10.0 mi Calm Calm - N/A   Partly Cloudy
4:56 AM -25.6 °F - - N/A% 29.45 in 10.0 mi Calm Calm - N/A   Scattered Clouds
5:16 AM -29.2 °F - - N/A% 29.45 in 10.0 mi Calm Calm - N/A   Scattered Clouds
5:36 AM -29.2 °F - - N/A% 29.45 in 10.0 mi Calm Calm - N/A   Mostly Cloudy
5:56 AM -27.4 °F - - N/A% 29.46 in 10.0 mi Calm Calm - N/A   Mostly Cloudy
6:16 AM -29.2 °F - - N/A% 29.46 in 10.0 mi Calm Calm - N/A   Overcast
6:36 AM -27.4 °F - - N/A% 29.46 in 10.0 mi Calm Calm - N/A   Mostly Cloudy
6:56 AM -27.4 °F - - N/A% 29.47 in 10.0 mi Calm Calm - N/A   Partly Cloudy
7:16 AM -27.4 °F - - N/A% 29.47 in 10.0 mi Calm Calm - N/A   Clear
7:36 AM -27.4 °F - - N/A% 29.48 in 10.0 mi Calm Calm - N/A   Scattered Clouds
7:56 AM -27.4 °F - - N/A% 29.48 in 8.0 mi Calm Calm - N/A   Mostly Cloudy
8:16 AM -27.4 °F - - N/A% 29.48 in 3.0 mi Calm Calm - N/A   Overcast
8:36 AM -25.6 °F - - N/A% 29.48 in 4.0 mi Calm Calm - N/A   Overcast
8:56 AM -25.6 °F - - N/A% 29.49 in 5.0 mi Calm Calm - N/A   Overcast
9:16 AM -25.6 °F - - N/A% 29.49 in 5.0 mi Calm Calm - N/A   Overcast
9:36 AM -25.6 °F - - N/A% 29.50 in 2.5 mi Calm Calm - N/A   Overcast
9:56 AM -23.8 °F - - N/A% 29.50 in 4.0 mi Calm Calm - N/A   Overcast
10:16 AM -23.8 °F - - N/A% 29.51 in 3.0 mi Calm Calm - N/A   Overcast
10:36 AM -20.2 °F - - N/A% 29.51 in 5.0 mi Calm Calm - N/A   Overcast
10:56 AM -20.2 °F - - N/A% 29.52 in 7.0 mi Calm Calm - N/A   Partly Cloudy
11:16 AM -20.2 °F - - N/A% 29.52 in 10.0 mi Calm Calm - N/A   Clear
11:36 AM -20.2 °F - - N/A% 29.52 in 10.0 mi Calm Calm - N/A   Clear
11:56 AM -18.4 °F - - N/A% 29.53 in 10.0 mi Calm Calm - N/A   Clear
12:16 PM -18.4 °F - - N/A% 29.53 in 10.0 mi Calm Calm - N/A   Clear
12:36 PM -16.6 °F - - N/A% 29.54 in 10.0 mi Calm Calm - N/A   Clear
12:56 PM -16.6 °F - - N/A% 29.54 in 10.0 mi Calm Calm - N/A   Clear
1:16 PM -16.6 °F - - N/A% 29.54 in 10.0 mi Calm Calm - N/A   Scattered Clouds
1:36 PM -16.6 °F - -29.2 °F 53% 29.54 in 10.0 mi Calm Calm - N/A   Scattered Clouds
1:56 PM -16.6 °F - -27.4 °F 58% 29.54 in 10.0 mi Calm Calm - N/A   Clear
2:16 PM -16.6 °F - -27.4 °F 58% 29.55 in 10.0 mi Calm Calm - N/A   Partly Cloudy
2:36 PM -16.6 °F - -27.4 °F 58% 29.55 in 10.0 mi Calm Calm - N/A   Scattered Clouds
2:56 PM -16.6 °F - -27.4 °F 58% 29.55 in 10.0 mi Calm Calm - N/A   Clear
3:16 PM -16.6 °F - -27.4 °F 58% 29.55 in 10.0 mi Calm Calm - N/A   Clear
3:36 PM -16.6 °F -26.8 °F -27.4 °F 58% 29.56 in 10.0 mi East 3.5 mph - N/A   Mostly Cloudy
3:56 PM -16.6 °F - - N/A% 29.56 in 9.0 mi Calm Calm - N/A   Mostly Cloudy
4:16 PM -16.6 °F - -23.8 °F 70% 29.56 in 10.0 mi Calm Calm - N/A   Mostly Cloudy
4:36 PM -18.4 °F - - N/A% 29.56 in 5.0 mi Calm Calm - N/A   Overcast
4:56 PM -18.4 °F - -22.0 °F 84% 29.56 in 3.0 mi Calm Calm - N/A   Overcast
5:16 PM -18.4 °F - - N/A% 29.57 in 5.0 mi Calm Calm - N/A   Overcast
5:36 PM -18.4 °F - -23.8 °F 76% 29.57 in 10.0 mi Calm Calm - N/A   Mostly Cloudy
5:56 PM -18.4 °F - - N/A% 29.58 in 10.0 mi Calm Calm - N/A   Mostly Cloudy
6:16 PM -18.4 °F - -18.4 °F 100% 29.58 in 7.0 mi Calm Calm - N/A   Overcast
6:36 PM -18.4 °F - - N/A% 29.58 in 5.0 mi Calm Calm - N/A   Overcast
6:56 PM -18.4 °F - - N/A% 29.58 in 4.0 mi Calm Calm - N/A   Overcast
7:16 PM -18.4 °F - - N/A% 29.58 in 6.0 mi Calm Calm - N/A   Overcast
7:36 PM -18.4 °F - - N/A% 29.58 in 10.0 mi Calm Calm - N/A   Overcast
7:56 PM -16.6 °F - - N/A% 29.58 in 5.0 mi Calm Calm - N/A   Overcast
8:16 PM -18.4 °F - - N/A% 29.58 in 6.0 mi Calm Calm - N/A   Mostly Cloudy
8:36 PM -18.4 °F - - N/A% 29.58 in 7.0 mi Calm Calm - N/A   Overcast
8:56 PM -18.4 °F - - N/A% 29.58 in 5.0 mi Calm Calm - N/A   Overcast
9:16 PM -18.4 °F - - N/A% 29.58 in 7.0 mi Calm Calm - N/A   Overcast
9:36 PM -18.4 °F - - N/A% 29.58 in 6.0 mi Calm Calm - N/A   Overcast
9:56 PM -18.4 °F - - N/A% 29.57 in 5.0 mi Calm Calm - N/A   Overcast
10:16 PM -18.4 °F - - N/A% 29.57 in 4.0 mi Calm Calm - N/A   Overcast
10:36 PM -18.4 °F - - N/A% 29.57 in 5.0 mi Calm Calm - N/A   Overcast
10:56 PM -18.4 °F - -29.2 °F 58% 29.58 in 5.0 mi Calm Calm - N/A   Overcast
11:16 PM -18.4 °F - -27.4 °F 63% 29.58 in 6.0 mi Calm Calm - N/A   Overcast
11:36 PM -18.4 °F - -29.2 °F 58% 29.58 in 2.0 mi Calm Calm - N/A   Overcast
11:56 PM -18.4 °F - -27.4 °F 63% 29.57 in 4.0 mi Calm Calm - N/A   Mostly Cloudy